Powrót do katalogu

ONEWEB-0352

AktywnyŁącznośćPO
NORAD 49216·PAYLOAD·🇬🇧 United Kingdom

Wystrzelony Sep 14, 2021 z Baikonur Cosmodrome

Loading…

Następne Przeloty (najbliższe 24 godziny)

TLE

ŚwieżeSource: CelesTrak SupGP

Epoka: Sep 14, 2026, 20:18 UTC

1 49216C 21083AG  26257.84597222 -.00001331  00000+0 -36486-2 0  2572
2 49216  87.8910 302.3948 0001722  86.2220 309.5545 13.13466456    19

Śledź ONEWEB-0352 w czasie rzeczywistym z AllMySat

Download on the App Store